Location: Seasalter
(51.3333°N, 1.0167°E)
Time: 13:15:25
(UTC+00:00)

SL-16 R/B - Pass Details

Date: 26 September 2023
Orbit: 985 x 1006 km, 99.7° (Epoch: 28 November)

Event Time Altitude Azimuth Distance (km) Brightness Sun altitude
Exits shadow 03:14:07 30° 294° (WNW) 1,696 3.4 -23.7°
Drops below altitude 10° 03:18:07 10° 329° (NNW) 2,766 4.9 -23.2°
Sets 03:20:52 0° 339° (NNW) 3,716 5.6 -22.8°
